User: anonymous   Login
Location: Cactus School
(34.5700°N, 118.0931°W)
Time: 11:44:03
(UTC-07:00)
Language:

BEESAT - Orbit

View from above orbital plane
View from above orbital plane
View from above satellite
View from above satellite

Ground track
Ground track

The orbit data is extracted from the following two-line orbital elements,

1 35933U 09051C   24146.67078971  .00001866  00000-0  40991-3 0  9997
2 35933  98.4666  30.4695 0006634  49.5150 310.6626 14.58760101779420
Epoch (UTC): 25 May 2024 16:05:56
Eccentricity: 0.0006634
inclination: 98.4666°
perigee height: 692 km
apogee height: 702 km
right ascension of ascending node: 30.4695°
argument of perigee: 49.5150°
revolutions per day: 14.58760101
mean anomaly at epoch: 310.6626°
orbit number at epoch: 77942

The dashed part of the orbit path shows where the satellite is in the earth's shadow,  

DLR